CAPE
0 0 0 0 0 0 0 0 0 3 0 0 3 123 47 429 631 1151 1479 1443 1688 1678 1054 526 689 710 969 704 359 127 0 0 19 138 147 230 451 467 220 157 131 138 34 0 4 12 4 0 0
0 0 0 0 0 0 0 0 0 0 2 3 0 95 189 118 369 1339 1744 1595 1902 1538 880 506 906 966 919 716 328 27 0 0 22 128 376 596 385 168 92 67 32 99 64 75 80 50 116 216 255
0 0 0 0 0 0 0 0 0 0 1 0 0 4 106 430 560 1209 1797 1710 1754 1095 378 802 783 989 940 635 218 0 0 23 98 179 376 318 61 6 0 15 141 199 268 327 357 199 146 146 72
0 0 0 0 0 0 0 0 0 0 0 0 0 10 209 992 795 1116 1547 1759 1636 738 222 698 633 835 723 440 77 0 16 89 84 173 201 44 0 0 0 140 278 419 609 566 353 128 76 62 66
0 0 0 0 0 0 0 0 0 0 0 0 0 27 677 1236 1372 1502 1634 1762 1407 396 406 524 426 575 533 404 98 71 135 98 35 22 0 0 0 0 57 176 370 631 698 622 410 183 129 95 106
0 0 0 0 0 0 0 0 0 0 0 0 0 0 899 1381 1611 1684 1615 1595 1001 451 469 234 380 314 338 335 186 170 135 46 7 15 0 0 0 0 42 157 342 360 261 165 157 113 72 37 12
0 0 0 0 0 0 0 0 0 0 0 0 0 0 608 1223 1683 1758 1648 1428 834 579 125 62 84 328 353 223 218 134 45 15 0 0 0 0 0 0 0 4 23 20 7 6 3 4 3 2 0
0 0 0 0 0 0 0 0 0 0 0 0 0 0 203 635 1503 1689 1640 1203 834 666 165 20 14 36 13 110 166 83 14 3 0 0 0 0 0 0 0 0 0 0 0 0 0 0 0 0 0
0 0 0 0 0 0 0 0 0 0 0 0 0 0 975 1175 1550 1710 1625 1401 969 549 256 43 3 0 0 0 66 29 23 6 0 0 0 0 0 0 0 0 0 0 0 0 0 0 0 0 7
0 0 0 0 0 0 0 0 0 0 0 0 0 0 1189 1506 1860 1771 1550 1549 1175 727 262 82 16 0 0 0 0 0 0 0 0 0 0 0 0 0 0 0 0 0 0 0 0 16 94 133 344
0 0 0 0 0 0 0 0 0 0 0 0 0 0 762 1523 1538 1819 1677 1641 1409 876 281 157 113 22 0 2 0 0 1 15 38 87 0 0 0 0 0 3 0 15 0 43 97 220 342 301 279
0 0 0 0 0 0 0 0 0 0 0 0 0 0 160 1153 1010 1805 1738 1716 1411 1055 397 231 262 237 62 34 0 0 0 0 3 0 43 81 0 0 0 0 0 0 68 148 209 143 325 522 366
0 0 0 0 0 0 0 0 0 0 0 0 0 0 7 627 961 1112 1511 1454 1507 1251 824 489 655 571 554 183 69 32 38 11 16 96 63 0 0 0 0 0 0 0 2 149 317 336 487 485 505
0 0 0 0 0 0 0 0 0 0 0 0 0 0 414 1113 1129 1219 1387 1440 1694 1605 1275 854 929 981 642 593 455 321 229 229 153 192 247 117 0 5 0 0 0 0 28 265 547 1436 1432 1239 916
0 0 0 0 0 0 0 0 0 0 0 0 0 0 0 961 1149 1461 1624 1645 1725 1755 1480 1392 1319 1106 1228 804 845 737 577 460 383 432 616 148 146 82 6 19 1 172 774 1025 1587 1344 1321 1013 784
0 0 0 0 0 0 0 0 0 0 0 0 0 0 0 0 1157 1549 1973 2084 2073 1936 1807 1681 1340 1349 1298 1163 1061 736 602 470 505 331 318 156 126 439 705 893 991 947 1140 1324 1357 1204 1098 772 779
0 0 0 0 0 0 0 0 0 0 0 0 0 0 0 31 477 1906 2281 2253 2028 1842 1770 1716 1458 1416 1497 1515 1121 809 1142 651 227 78 111 215 441 589 934 929 1085 1213 1008 705 378 235 223 243 448
35 9 0 0 0 0 0 0 0 0 0 0 0 0 0 0 946 1949 2255 2086 1783 1849 1895 1652 1544 1472 1610 1406 1519 868 943 155 87 393 801 1205 1012 1077 1345 1364 1378 877 238 143 212 283 477 496 575
11 19 13 18 0 0 0 0 0 0 0 0 0 0 0 0 1039 2164 2252 2081 1889 1758 1736 1463 1120 1268 1772 1337 1051 450 80 84 704 1267 1766 1659 1549 1559 1387 842 331 111 72 242 327 343 443 321 231
12 21 49 25 14 0 0 0 0 0 0 0 0 0 0 0 431 2211 2069 1926 1860 1617 1571 1113 1068 1494 1508 1079 311 48 71 968 1158 1377 1172 796 520 466 409 522 296 205 233 219 125 101 108 105 3
20 13 47 65 10 0 2 0 0 0 0 0 0 0 0 0 12 1371 1983 1966 1871 1524 1334 1192 1330 1462 1144 311 1417 1801 1769 1288 1283 1151 909 249 175 176 100 62 55 77 93 15 0 0 0 0 0
25 8 2 3 0 0 0 0 0 0 0 0 0 0 0 0 13 1646 1690 1367 1467 1386 1279 1228 1292 1259 935 1542 1725 1755 1366 1330 1175 602 56 5 10 3 2 1 0 0 0 0 0 0 0 0 0
3 0 0 0 0 0 0 0 0 0 0 0 0 0 0 0 40 1515 1291 436 1380 1549 1272 1306 1172 1020 1333 1577 1567 1569 1239 1132 864 210 21 1 0 0 0 0 0 0 0 0 0 0 0 0 0
0 2 0 0 0 0 0 0 0 0 0 0 0 0 0 0 445 1449 1664 1534 1902 1527 1313 1279 1190 1318 1312 1364 1717 1497 1236 802 476 142 0 0 0 0 0 0 0 0 0 0 0 0 0 0 0
0 1 3 1 2 0 0 0 0 0 0 0 0 0 0 3 710 1343 1824 1733 1774 1567 1392 1557 1437 1675 1801 1892 1780 1531 1304 572 274 29 0 0 0 0 0 0 0 0 0 0 0 0 0 0 0
30 8 14 22 12 0 0 0 0 0 0 0 0 0 0 222 730 1267 2101 1557 1696 1610 1494 1344 1681 1905 1790 1377 1278 897 424 231 52 1 0 0 0 0 0 0 0 0 0 0 0 0 0 0 0
26 3 0 4 13 38 15 0 0 0 0 0 0 0 1 649 1102 1624 1852 1209 1434 1394 1404 1354 1704 1617 1821 1237 936 562 128 39 0 0 0 0 0 0 0 0 0 0 0 0 0 0 0 0 0
13 31 1 13 0 26 6 0 0 0 0 0 0 0 54 924 1542 2081 1633 909 1754 1760 1781 1673 1236 1328 1175 700 465 184 42 0 0 0 0 0 0 0 0 0 0 0 0 0 0 0 0 0 0
7 5 3 7 0 5 3 1 0 0 0 0 0 0 213 1464 2099 1747 1673 1539 1720 1720 1361 956 1133 1119 740 379 66 0 0 0 0 0 0 0 0 0 0 0 0 0 0 0 0 0 0 0 0
16 19 34 24 5 0 0 0 8 0 0 0 0 0 497 2176 1649 1513 629 1265 1124 981 1004 1167 728 516 270 41 0 0 0 0 0 0 0 0 0 0 0 0 0 0 0 0 0 0 0 0 0
CIN
-0 -0 -0 -0 -0 -0 -0 -0 -0 -7 -0 -0 -10 -54 -32 -27 -16 -22 -18 -89 -83 -117 -249 -367 -313 -290 -217 -246 -303 -406 -0 -0 -222 -320 -294 -233 -169 -149 -197 -206 -203 -201 -244 -0 -46 -256 -45 -0 -0
-0 -0 -0 -0 -0 -0 -0 -0 -0 -0 -0 -2 -0 -74 -69 -49 -82 -45 -31 -88 -77 -149 -269 -323 -251 -219 -206 -244 -291 -184 -0 -0 -430 -309 -193 -119 -168 -217 -253 -241 -240 -207 -230 -226 -240 -247 -186 -147 -126
-0 -0 -0 -0 -0 -0 -0 -0 -0 -0 -2 -0 -0 -4 -4 -71 -125 -68 -81 -110 -114 -205 -321 -268 -267 -181 -180 -237 -308 -0 -0 -429 -336 -280 -203 -184 -280 -96 -0 -208 -180 -153 -146 -131 -124 -176 -204 -224 -261
-0 -0 -0 -0 -0 -0 -0 -0 -0 -0 -0 -0 -0 -11 -63 -100 -122 -145 -142 -105 -127 -223 -322 -321 -297 -200 -187 -229 -372 -0 -458 -325 -318 -261 -247 -304 -0 -0 -0 -202 -143 -120 -84 -97 -144 -227 -271 -263 -256
-0 -0 -0 -0 -0 -0 -0 -0 -0 -0 -0 -0 -0 -1 -8 -61 -119 -140 -135 -106 -121 -263 -266 -321 -331 -236 -191 -201 -345 -334 -292 -304 -341 -290 -20 -0 -0 -0 -266 -212 -149 -93 -78 -92 -125 -190 -233 -268 -271
-0 -0 -0 -0 -0 -0 -0 -0 -0 -0 -0 -0 -0 -0 -4 -72 -75 -105 -101 -111 -123 -196 -248 -386 -312 -292 -230 -198 -259 -230 -259 -327 -374 -350 -0 -0 -0 -0 -272 -217 -152 -144 -169 -224 -213 -237 -276 -326 -390
-0 -0 -0 -0 -0 -0 -0 -0 -0 -0 -0 -0 -1 -0 -11 -30 -23 -83 -107 -107 -123 -170 -334 -459 -430 -278 -233 -233 -222 -244 -308 -377 -51 -0 -0 -0 -0 -0 -0 -68 -326 -330 -68 -76 -81 -77 -79 -87 -0
-0 -0 -0 -0 -0 -0 -0 -0 -0 -0 -0 -0 -0 -0 -18 -37 -50 -57 -65 -89 -124 -151 -305 -470 -518 -484 -453 -294 -251 -303 -417 -415 -0 -0 -0 -0 -0 -0 -0 -0 -0 -0 -0 -0 -0 -0 -0 -0 -0
-0 -0 -0 -0 -0 -0 -0 -0 -0 -0 -0 -0 -0 -0 -14 -61 -39 -31 -35 -46 -95 -149 -255 -362 -328 -0 -0 -0 -326 -356 -397 -478 -0 -0 -0 -0 -0 -0 -0 -0 -0 -0 -0 -0 -0 -0 -0 -0 -89
-0 -0 -0 -0 -0 -0 -0 -0 -0 -0 -0 -0 -0 -0 -25 -65 -28 -11 -26 -28 -55 -90 -183 -252 -348 -86 -0 -0 -0 -0 -0 -0 -0 -142 -0 -0 -0 -0 -0 -0 -0 -0 -0 -0 -0 -282 -216 -188 -49
-0 -0 -0 -0 -0 -0 -0 -0 -0 -0 -0 -0 -0 -0 -58 -77 -29 -1 -2 -3 -12 -42 -128 -189 -197 -281 -0 -374 -0 -0 -53 -331 -202 -160 -0 -0 -0 -0 -0 -46 -0 -223 -0 -135 -168 -87 -62 -44 -34
-0 -0 -0 -0 -0 -0 -0 -0 -0 -0 -0 -0 -0 -0 -29 -33 -52 -2 -1 -2 -3 -12 -58 -103 -125 -114 -186 -260 -38 -41 -0 -0 -172 -20 -220 -183 -0 -0 -0 -0 -0 -0 -138 -126 -55 -55 -35 -5 -10
-0 -0 -0 -0 -0 -0 -0 -0 -0 -0 -0 -0 -0 -0 -8 -50 -28 -8 -2 -2 -2 -2 -20 -38 -37 -42 -41 -135 -144 -171 -177 -207 -201 -167 -213 -0 -0 -0 -0 -0 -0 -0 -12 -120 -56 -31 -32 -28 -9
-0 -0 -0 -1 -0 -0 -0 -0 -0 -0 -0 -0 -0 -0 -15 -11 -15 -3 -3 -2 -1 -2 -5 -13 -13 -4 -23 -22 -48 -53 -61 -56 -96 -113 -125 -191 -0 -146 -0 -0 -0 -0 -254 -134 -71 -16 -18 -12 -4
-0 -0 -0 -0 -0 -0 -0 -0 -0 -0 -0 -0 -0 -0 -0 -5 -5 -2 -2 -1 -1 -9 -3 -2 -2 -6 -8 -31 -20 -13 -13 -38 -52 -73 -75 -207 -228 -277 -315 -242 -135 -199 -70 -33 -0 -1 -16 -46 -92
-0 -0 -0 -0 -0 -0 -0 -0 -0 -0 -0 -0 -0 -0 -0 -0 -2 -1 -5 -3 -8 -7 -4 -6 -6 -1 -7 -24 -19 -17 -49 -44 -53 -118 -145 -232 -242 -131 -89 -26 -25 -55 -37 -25 -19 -15 -12 -11 -46
-2 -0 -0 -0 -0 -0 -0 -0 -0 -0 -0 -0 -0 -0 -0 -48 -21 -2 -11 -8 -14 -14 -9 -2 -2 -6 -2 -7 -6 -23 -17 -46 -142 -231 -196 -175 -98 -72 -32 -23 -12 -33 -19 -32 -77 -114 -89 -51 -81
-12 -12 -0 -2 -0 -0 -0 -0 -0 -0 -0 -0 -0 -0 -0 -0 -4 -3 -21 -10 -13 -12 -4 -8 -11 -9 -4 -15 -0 -35 -26 -189 -237 -88 -17 -3 -8 -18 -20 -1 -2 -17 -36 -99 -112 -55 -23 -22 -45
-36 -10 -16 -5 -0 -0 -0 -0 -0 -0 -0 -0 -0 -0 -0 -0 -4 -6 -7 -7 -4 -6 -3 -33 -57 -30 -0 -44 -7 -113 -268 -225 -18 -3 -1 -1 -0 -0 -0 -1 -71 -154 -124 -58 -64 -46 -50 -44 -106
-4 -21 -8 -10 -9 -1 -0 -0 -0 -0 -0 -0 -0 -0 -0 -0 -36 -1 -10 -1 -12 -13 -22 -75 -57 -20 -21 -12 -178 -277 -244 -20 -4 -0 -1 -28 -66 -63 -46 -21 -62 -94 -54 -61 -131 -115 -118 -124 -57
-4 -21 -10 -9 -8 -0 -3 -0 -0 -0 -0 -0 -0 -0 -0 -0 -24 -19 -1 -0 -2 -17 -55 -66 -45 -35 -50 -189 -5 -7 -8 -4 -1 -1 -19 -145 -162 -150 -140 -163 -214 -164 -123 -212 -0 -0 -0 -0 -0
-8 -10 -4 -5 -0 -0 -0 -0 -0 -0 -0 -0 -0 -0 -0 -0 -22 -3 -4 -2 -2 -16 -33 -74 -86 -81 -51 -0 -1 -2 -3 -0 -2 -76 -350 -86 -382 -22 -0 -0 -0 -0 -0 -0 -0 -0 -0 -0 -0
-4 -0 -2 -0 -0 -4 -0 -0 -0 -0 -0 -0 -0 -0 -0 -0 -158 -5 -43 -18 -7 -9 -71 -89 -105 -67 -12 -1 -1 -1 -6 -9 -32 -226 -364 -0 -0 -0 -0 -0 -0 -0 -0 -0 -0 -0 -0 -0 -0
-0 -2 -0 -0 -0 -0 -0 -0 -0 -0 -0 -0 -0 -0 -0 -0 -17 -4 -3 -7 -2 -56 -108 -62 -71 -39 -35 -6 -1 -3 -2 -67 -121 -238 -10 -0 -0 -0 -0 -0 -0 -0 -0 -0 -0 -0 -0 -0 -0
-0 -4 -4 -2 -6 -0 -0 -0 -0 -0 -0 -0 -0 -0 -0 -54 -3 -4 -2 -3 -22 -38 -84 -25 -21 -8 -15 -1 -1 -1 -10 -132 -164 -347 -0 -0 -0 -0 -0 -0 -0 -0 -0 -0 -0 -0 -0 -0 -0
-7 -7 -11 -9 -7 -0 -0 -0 -0 -0 -0 -0 -0 -0 -0 -7 -6 -7 -2 -18 -10 -48 -50 -71 -51 -8 -1 -31 -25 -89 -169 -202 -306 -270 -2 -0 -0 -0 -0 -0 -0 -0 -0 -0 -0 -0 -0 -0 -0
-7 -5 -13 -3 -22 -10 -4 -0 -0 -0 -0 -0 -0 -0 -4 -3 -3 -3 -11 -34 -14 -66 -83 -113 -10 -4 -24 -39 -81 -118 -277 -349 -0 -0 -0 -0 -0 -0 -0 -0 -0 -0 -0 -0 -0 -0 -0 -0 -0
-9 -17 -1 -3 -0 -7 -13 -0 -0 -0 -0 -0 -0 -0 -11 -4 -5 -5 -4 -2 -17 -54 -45 -27 -60 -49 -59 -115 -187 -251 -357 -0 -0 -0 -0 -0 -0 -0 -0 -0 -0 -0 -0 -0 -0 -0 -0 -0 -0
-4 -3 -1 -6 -0 -16 -16 -9 -0 -0 -0 -0 -0 -0 -11 -6 -7 -13 -2 -3 -5 -20 -50 -91 -39 -65 -114 -198 -322 -0 -0 -0 -0 -0 -0 -0 -0 -0 -0 -0 -0 -0 -0 -0 -0 -0 -0 -0 -0
-17 -4 -5 -7 -5 -0 -0 -1 -12 -0 -0 -0 -0 -0 -2 -3 -2 -3 -92 -3 -46 -60 -79 -54 -112 -149 -191 -319 -0 -0 -0 -0 -0 -0 -0 -0 -0 -0 -0 -0 -0 -0 -0 -0 -0 -0 -0 -0 -0
Wind_Speed
26 25 25 27 29 32 43 41 39 25 25 21 16 12 19 18 19 16 9 9 4 7 7 7 6 9 9 10 11 9 10 10 8 9 10 11 11 11 13 15 17 18 18 19 19 19 19 19 18
26 22 25 29 37 45 43 39 36 25 16 12 17 18 17 17 17 8 5 5 5 7 7 6 5 7 8 10 11 8 9 9 9 8 8 8 8 10 12 14 15 16 17 17 18 18 17 18 17
24 22 25 29 40 52 44 30 36 19 19 17 17 19 15 14 12 11 9 3 8 7 8 5 6 6 7 9 9 6 7 7 7 8 8 7 8 10 12 13 14 15 16 16 17 17 16 15 14
20 21 29 39 42 42 47 41 24 24 17 20 22 18 14 13 10 12 6 4 5 5 7 6 6 6 6 8 7 5 6 6 6 6 7 7 8 10 11 12 13 14 15 15 15 15 15 13 12
26 26 35 41 46 47 39 47 33 26 26 21 17 21 14 11 9 5 5 2 3 6 6 6 5 5 5 6 6 4 5 5 5 6 6 8 9 10 10 11 12 13 14 15 15 14 13 11 11
27 31 40 49 45 48 46 37 46 28 30 22 15 23 15 7 7 2 5 4 4 5 6 6 5 4 4 4 5 4 3 4 4 5 6 6 7 8 9 10 11 12 13 14 15 15 13 13 10
35 35 46 48 43 49 44 43 38 31 31 27 19 20 16 11 7 4 2 8 7 3 7 9 5 4 3 3 4 3 2 3 4 5 6 6 7 7 9 10 11 12 13 15 17 16 16 14 8
37 43 49 50 49 49 38 40 32 41 37 31 17 25 23 11 8 4 2 5 9 6 5 9 6 4 4 3 3 3 2 3 4 4 5 6 7 8 9 10 11 12 14 15 15 15 15 13 8
33 48 54 51 48 46 38 35 36 37 39 35 19 25 8 8 7 5 4 5 6 5 7 9 7 5 4 4 3 2 1 2 2 3 4 5 7 8 9 10 11 12 14 14 14 15 16 12 9
39 47 53 46 43 46 46 38 33 37 37 38 27 14 10 10 9 8 7 7 7 7 6 7 7 6 5 3 4 2 1 1 2 3 4 6 8 10 13 11 11 11 12 10 12 14 15 15 18
38 52 44 48 45 42 42 44 35 40 39 36 32 22 15 15 14 12 10 8 9 8 7 7 6 6 5 4 4 4 3 3 3 4 4 9 7 8 8 9 8 11 10 15 14 17 16 28 28
41 47 46 48 43 42 41 39 38 40 41 31 36 30 19 19 18 16 13 11 10 8 8 7 7 9 7 4 4 3 4 3 4 4 5 7 7 9 11 11 14 11 14 19 19 22 25 24 28
38 45 45 45 44 40 41 42 42 38 31 21 18 24 20 20 19 18 16 14 10 9 8 8 7 9 8 6 5 4 3 4 4 5 5 6 7 9 9 11 10 14 17 19 22 23 26 27 27
34 40 42 44 46 43 41 44 42 41 34 28 23 25 24 22 24 18 18 16 14 11 9 8 7 7 6 6 6 5 5 5 5 5 5 7 8 9 9 9 11 14 17 19 20 25 26 28 30
32 40 40 51 45 50 42 47 51 43 36 36 29 28 27 25 23 22 21 17 16 14 12 10 9 7 5 4 4 5 4 4 5 6 8 8 9 10 11 11 12 15 18 20 23 25 26 24 26
30 33 45 47 51 46 45 57 49 44 41 39 34 27 26 25 25 22 20 18 15 14 15 12 11 11 7 5 5 6 5 7 7 8 8 8 9 9 9 11 14 17 18 19 22 24 27 28 31
28 37 41 48 47 50 50 53 44 41 43 38 35 33 29 26 24 22 17 17 15 14 14 13 12 7 8 5 6 7 6 8 7 8 8 8 7 8 10 12 14 15 18 20 24 26 20 13 17
28 32 36 43 45 45 55 50 40 41 42 44 40 37 33 28 25 22 18 17 14 14 16 12 8 6 11 5 10 8 5 5 6 8 8 7 8 9 11 14 15 16 17 23 27 19 18 17 25
29 30 30 33 36 43 49 50 47 34 41 39 41 39 36 31 24 20 19 17 15 14 13 10 8 7 7 6 6 1 1 3 7 9 9 10 12 13 15 15 17 20 21 21 16 14 24 26 27
31 30 33 31 28 35 41 48 49 44 40 39 40 38 37 29 28 22 20 19 17 15 12 10 9 8 7 4 3 1 2 5 6 8 11 15 17 18 17 19 19 23 20 20 20 23 23 25 28
29 34 34 34 30 39 40 46 47 49 42 43 37 37 33 32 28 26 22 20 19 18 15 12 10 8 6 4 3 3 5 6 6 8 11 15 15 16 17 20 21 21 17 20 21 24 26 23 25
30 28 32 31 33 40 38 48 51 48 47 45 43 39 36 35 29 26 23 22 23 19 16 12 10 8 5 4 1 1 4 6 9 9 13 15 16 17 18 18 19 20 20 21 22 23 22 24 25
30 22 28 30 35 37 38 43 43 46 48 49 46 43 38 35 32 25 24 27 24 17 14 12 11 8 5 2 1 2 6 7 9 11 12 14 16 16 17 18 19 21 21 22 22 22 24 25 24
27 28 30 30 33 42 41 39 46 41 49 47 45 42 39 35 31 25 22 27 20 16 13 13 11 7 4 4 4 6 7 7 9 10 11 13 14 15 17 18 19 20 20 21 21 22 24 24 24
24 28 29 30 36 43 38 42 40 28 41 46 43 40 39 35 31 26 27 24 20 17 17 14 9 6 3 0 4 5 6 8 9 10 11 12 13 15 16 18 19 20 21 21 22 23 23 24 24
25 31 28 28 32 39 35 45 42 35 29 43 40 37 37 34 31 29 28 25 24 19 16 12 9 5 4 5 4 6 7 8 10 11 12 13 13 14 16 18 19 20 21 21 21 22 22 23 23
30 35 31 27 32 32 34 33 36 31 33 39 41 37 38 35 31 32 29 28 29 23 16 12 12 9 4 6 5 7 7 8 10 11 13 13 13 15 17 19 20 20 21 20 20 21 22 22 22
33 26 31 28 30 36 36 41 36 37 36 35 42 38 37 34 32 33 30 26 27 21 17 12 9 7 10 10 8 6 7 9 10 11 12 13 14 15 17 18 19 20 20 20 20 20 21 22 22
24 34 33 34 34 33 38 39 33 31 38 37 41 37 37 34 36 36 29 29 25 20 16 14 12 11 11 8 7 8 8 10 10 11 12 13 14 15 16 17 18 19 19 20 19 20 20 21 22
28 27 33 36 38 38 39 40 24 36 31 37 43 36 35 36 40 33 30 31 22 19 16 13 12 10 8 8 7 7 8 10 10 11 12 12 13 14 16 17 18 18 18 18 19 20 20 21 22
Wind_Direction
274 272 270 266 262 259 247 245 244 267 266 273 297 285 276 280 284 280 291 289 83 100 125 128 120 108 107 108 114 112 103 93 79 69 66 65 63 57 60 64 67 67 68 72 69 64 65 64 65
274 274 266 262 254 248 247 246 249 260 283 283 281 279 283 283 288 353 77 303 84 98 122 127 127 113 110 110 116 118 107 96 84 72 61 49 46 48 55 61 63 63 62 58 55 56 56 51 55
274 269 261 260 252 244 246 255 252 264 269 275 278 274 284 290 301 289 311 38 86 103 121 136 129 117 114 114 119 126 111 97 83 72 59 45 45 48 53 51 51 51 48 48 48 52 51 57 66
271 265 264 255 252 251 246 249 262 258 266 266 267 281 282 298 298 297 309 80 93 110 123 141 138 127 121 119 123 135 114 98 80 66 56 49 44 48 47 44 46 45 44 46 49 47 50 58 55
261 261 257 255 252 247 250 244 261 258 258 261 264 267 285 285 302 12 79 132 129 123 115 143 142 137 129 125 131 150 118 97 77 66 58 52 53 51 46 45 42 41 40 35 33 35 48 51 46
257 255 254 250 253 247 247 250 246 260 256 259 260 261 283 285 285 317 92 129 191 133 118 142 160 158 141 138 141 170 134 98 83 66 52 41 40 38 34 30 29 27 24 23 14 16 26 23 29
253 252 252 253 255 247 248 247 248 253 254 256 264 258 269 270 273 266 121 113 123 164 117 126 152 173 175 150 146 160 148 103 83 69 54 36 23 15 14 16 15 13 13 4 0 6 7 12 23
254 255 253 250 249 249 252 248 249 247 251 254 262 257 263 255 261 237 194 135 129 126 136 127 141 171 175 186 173 154 139 102 82 56 38 28 8 2 6 9 14 12 3 359 6 4 5 9 14
256 252 248 249 249 250 253 249 250 251 249 247 255 258 271 252 244 228 193 160 155 176 133 135 145 164 169 156 192 183 171 89 61 30 15 21 16 12 15 10 10 9 2 5 5 2 359 5 4
250 250 249 253 256 253 250 253 250 246 244 245 251 251 265 252 246 226 205 185 174 167 172 158 153 158 180 183 162 194 210 292 332 351 5 359 360 353 343 7 16 19 12 15 10 3 0 358 354
251 250 255 252 254 258 252 247 251 245 243 243 244 248 250 248 248 240 231 199 169 164 183 193 181 195 178 190 205 243 262 287 320 343 6 337 6 11 23 18 29 16 13 0 0 352 353 334 335
258 254 254 254 255 257 252 248 246 244 244 250 244 252 237 242 242 240 233 225 205 170 183 177 195 221 222 214 222 238 269 299 320 349 345 350 359 358 349 358 352 10 3 349 346 344 340 339 335
262 257 253 254 252 256 247 247 247 243 244 254 242 242 237 240 240 240 236 233 211 199 192 186 187 216 232 230 242 259 290 310 344 347 6 6 359 355 2 1 7 356 348 343 339 338 335 335 336
272 263 256 252 248 250 248 246 245 243 239 244 245 244 245 240 241 239 235 230 219 212 206 198 181 214 213 244 250 266 292 314 331 5 15 356 360 1 6 9 360 349 342 338 338 335 333 333 332
276 266 260 246 247 244 247 246 239 239 243 241 245 243 241 241 236 237 238 225 221 220 215 210 203 201 207 225 242 271 295 332 339 357 354 357 354 356 357 359 354 348 341 338 336 333 332 333 335
279 273 258 248 241 243 242 239 240 240 238 237 236 238 238 243 236 234 233 228 217 214 218 216 221 231 228 233 252 274 295 307 331 340 358 351 355 4 7 357 352 346 345 343 340 338 339 335 335
272 269 259 248 239 238 237 238 243 237 235 235 231 236 236 240 235 230 227 220 215 213 214 214 219 168 151 226 253 272 299 305 333 348 352 6 17 11 0 355 354 351 350 346 341 339 353 353 3
275 269 261 245 238 234 233 237 241 238 231 233 235 233 234 235 232 228 222 217 210 206 213 210 213 209 235 226 254 270 298 340 354 359 7 16 16 6 351 346 351 355 356 346 339 350 356 8 357
280 274 258 253 240 232 234 234 234 237 232 231 230 231 231 231 229 220 219 210 204 202 198 197 182 189 208 215 136 274 24 27 2 354 4 4 1 352 349 354 353 348 351 353 261 247 352 357 357
266 269 257 257 247 236 236 233 233 233 234 231 230 229 228 225 224 220 212 207 202 199 191 183 177 176 210 197 232 302 44 2 9 9 5 357 350 348 353 346 345 340 353 360 357 357 1 358 359
264 257 253 251 253 241 237 235 231 230 232 231 229 227 226 225 220 220 210 206 199 198 186 178 167 187 208 191 267 309 1 4 3 6 3 353 358 358 357 349 338 350 7 4 360 355 354 7 5
261 262 259 259 246 233 234 232 229 227 228 227 225 225 223 223 219 211 210 207 204 197 191 170 157 172 159 166 245 306 332 346 342 13 9 8 12 10 359 0 359 5 15 10 6 3 12 9 10
255 279 261 255 244 241 235 231 231 224 225 224 223 222 223 221 217 206 199 219 208 179 167 168 156 155 161 192 275 324 329 1 20 11 16 12 12 17 9 6 3 7 14 14 13 17 9 13 14
263 262 255 253 244 234 231 228 227 221 222 222 221 219 219 219 210 205 189 171 174 174 156 192 163 167 174 256 305 317 340 21 8 24 30 27 29 19 6 9 18 18 18 15 17 20 17 20 22
263 252 247 243 235 231 231 229 228 225 224 220 217 215 215 215 208 202 198 191 187 177 162 162 172 145 155 360 324 10 9 17 31 48 34 40 35 19 14 22 16 19 19 18 19 22 22 25 27
262 243 241 245 234 232 234 226 227 235 236 220 218 212 213 209 207 207 198 193 195 188 180 180 203 194 128 81 37 40 40 41 41 33 39 35 23 19 27 28 31 25 18 19 26 24 28 30 35
252 239 247 264 252 241 233 234 231 235 229 216 215 209 211 208 206 207 196 201 205 195 181 169 146 135 116 94 77 67 47 39 36 37 38 29 26 29 30 29 23 18 19 23 27 29 32 39 39
245 258 247 250 242 234 234 224 228 224 225 222 214 207 208 205 206 202 200 190 196 187 174 170 158 149 115 100 85 60 47 47 43 31 24 20 21 22 21 23 23 21 22 24 31 38 38 42 36
250 247 247 248 244 241 233 230 231 231 225 221 215 208 205 201 202 208 204 182 175 177 172 160 151 132 114 100 85 73 59 49 37 26 20 24 21 21 20 26 26 25 27 28 36 39 46 41 38
244 256 249 242 239 243 241 234 250 231 228 224 216 207 201 201 207 208 217 202 162 172 161 154 145 132 117 106 90 72 51 40 29 20 20 17 12 18 25 28 27 27 29 32 38 41 45 42 42